Change the Weather History Date:

Sunday, December 2, 2012

  Actual Average Record
Temperature  
Mean Temperature 58 °F 46 °F  
Max Temperature 63 °F 60 °F 76 °F (1949)
Min Temperature 53 °F 31 °F 17 °F (2004)
Degree Days  
Heating Degree Days 7    
Month to date heating degree days 13  
Since 1 July heating degree days 445  
Cooling Degree Days 0    
Month to date cooling degree days 0  
Year to date cooling degree days 2282  
Growing Degree Days 8 (Base 50)    
Moisture  
Dew Point 49 °F    
Average Humidity 73    
Maximum Humidity 83    
Minimum Humidity 62    
Precipitation  
Precipitation 0.00 in 0.03 in 1.14 in (2014)
Month to date precipitation 0.00 0.05  
Year to date precipitation 1.75 6.28  
Since 1 July precipitation 0.05 1.37  
Snow  
Snow 0.00 in - 0.00 in ()
Month to date snowfall 0.0  
Since 1 July snowfall 0.0  
Snow Depth 0.00 in    
Sea Level Pressure  
Sea Level Pressure 30.05 in    
Wind  
Wind Speed 16 mph (SW)    
Max Wind Speed 30 mph    
Max Gust Speed 38 mph    
Visibility 10 miles    
Events      
T = Trace of Precipitation, MM = Missing Value Source: NWS Daily Summary

Daily Weather History Graph

Daily Weather History Graph

Search for Another Location

Airport or City:

Trip Planner

Search our weather history database for the weather conditions in past years. The results will help you decide how hot, cold, wet, or windy it might be!

Date:

Astronomy

Dec. 02, 2012 Rise Set
Actual Time 6:43 AM PST 4:41 PM PST
Civil Twilight 6:15 AM PST 5:09 PM PST
Nautical Twilight 5:44 AM PST 5:40 PM PST
Astronomical Twilight 5:13 AM PST 6:11 PM PST
Moon 8:29 PM PST (12/2) 9:39 AM PST (12/2)
Length of Visible Light 10h 53m
Length of Day
9h 58m
Waning Gibbous, 85% of the Moon is Illuminated
Dec 2
Waning Gibbous
Dec 6
Last Quarter
Dec 13
New
Dec 19
First Quarter
Dec 28
Full

Hourly Weather History & Observations

Time (PST) Temp. Dew Point Humidity Pressure Visibility Wind Dir Wind Speed Gust Speed Precip Events Conditions
12:56 AM 55.9 °F 48.9 °F 77% 30.06 in 10.0 mi WSW 11.5 mph - N/A   Clear
1:56 AM 55.0 °F 48.0 °F 77% 30.06 in 10.0 mi SW 10.4 mph - N/A   Clear
2:56 AM 55.0 °F 48.0 °F 77% 30.07 in 10.0 mi SW 13.8 mph - N/A   Clear
3:56 AM 55.0 °F 48.0 °F 77% 30.06 in 10.0 mi WSW 15.0 mph - N/A   Clear
4:56 AM 55.0 °F 48.0 °F 77% 30.06 in 10.0 mi SW 11.5 mph - N/A   Clear
5:56 AM 54.0 °F 48.0 °F 80% 30.07 in 10.0 mi WSW 4.6 mph - N/A   Clear
6:56 AM 55.0 °F 48.9 °F 80% 30.06 in 10.0 mi SW 15.0 mph - N/A   Clear
7:56 AM 57.0 °F 48.9 °F 74% 30.07 in 10.0 mi WSW 12.7 mph 19.6 mph N/A   Scattered Clouds
8:56 AM 59.0 °F 50.0 °F 72% 30.07 in 10.0 mi SW 18.4 mph 25.3 mph N/A   Clear
9:56 AM 61.0 °F 48.9 °F 64% 30.08 in 10.0 mi SW 23.0 mph 29.9 mph N/A   Clear
10:56 AM 61.0 °F 48.0 °F 62% 30.07 in 10.0 mi SW 21.9 mph 32.2 mph N/A   Clear
11:56 AM 60.1 °F 48.0 °F 64% 30.05 in 10.0 mi SW 19.6 mph 25.3 mph N/A   Scattered Clouds
12:56 PM 62.1 °F 50.0 °F 65% 30.02 in 10.0 mi SW 21.9 mph 33.4 mph N/A   Mostly Cloudy
1:18 PM 62.6 °F 50.0 °F 63% 30.01 in 10.0 mi WSW 21.9 mph 27.6 mph N/A   Partly Cloudy
1:56 PM 60.1 °F 50.0 °F 69% 30.01 in 10.0 mi SW 17.3 mph - N/A   Partly Cloudy
2:56 PM 60.1 °F 48.9 °F 67% 30.01 in 10.0 mi WSW 25.3 mph 38.0 mph N/A   Clear
4:56 PM 57.0 °F 46.0 °F 67% 30.04 in 10.0 mi SW 16.1 mph - N/A   Clear
5:56 PM 55.9 °F 46.9 °F 72% 30.04 in 10.0 mi WSW 17.3 mph 29.9 mph N/A   Clear
6:51 PM 55.4 °F 48.2 °F 77% 30.06 in 10.0 mi SW 9.2 mph - N/A   Mostly Cloudy
6:56 PM 55.0 °F 48.0 °F 77% 30.06 in 10.0 mi WSW 13.8 mph - N/A   Mostly Cloudy
7:05 PM 55.4 °F 48.2 °F 77% 30.05 in 10.0 mi SW 15.0 mph - N/A   Mostly Cloudy
7:26 PM 55.4 °F 48.2 °F 77% 30.05 in 10.0 mi SW 12.7 mph 18.4 mph N/A   Mostly Cloudy
7:56 PM 55.0 °F 48.9 °F 80% 30.02 in 10.0 mi WSW 16.1 mph - N/A   Mostly Cloudy
8:11 PM 55.4 °F 48.2 °F 77% 30.02 in 10.0 mi SW 18.4 mph 26.5 mph N/A   Scattered Clouds
8:56 PM 55.9 °F 48.0 °F 75% 30.03 in 10.0 mi WSW 15.0 mph 29.9 mph N/A   Clear
9:56 PM 55.9 °F 48.9 °F 77% 30.05 in 10.0 mi SW 10.4 mph - N/A   Partly Cloudy
10:56 PM 57.0 °F 50.0 °F 77% 30.06 in 10.0 mi SW 12.7 mph 21.9 mph N/A   Overcast
11:56 PM 57.0 °F 50.0 °F 77% 30.06 in 10.0 mi WSW 12.7 mph - N/A   Overcast